Orr, MN

1:59 AM CDT on May 24, 2018 (GMT -0500)
Orr Regional

Weather History for KORB - November, 2012

Change the Weather History Date:

Friday, November 9, 2012

  Actual Average Record
Temperature  
Mean Temperature 30 °F -  
Max Temperature 35 °F 35 °F 64 °F (2010)
Min Temperature 26 °F 21 °F -9 °F (2017)
Degree Days  
Heating Degree Days 34    
Moisture  
Dew Point 23 °F    
Average Humidity 74    
Maximum Humidity 86    
Minimum Humidity 56    
Precipitation  
Precipitation 0.00 in - - ()
Sea Level Pressure  
Sea Level Pressure 30.13 in    
Wind  
Wind Speed 1 mph (ENE)    
Max Wind Speed 7 mph    
Max Gust Speed -    
Visibility 10 miles    
Events      
Averages and records for this station are not official NWS values.
T = Trace of Precipitation, MM = Missing Value Source: NWS Daily Summary

Daily Weather History Graph

Daily Weather History Graph

Search for Another Location

Airport or City:

Astronomy

Nov. 09, 2012 Rise Set
Actual Time 7:09 AM CST 4:40 PM CST
Civil Twilight 6:36 AM CST 5:13 PM CST
Nautical Twilight 5:58 AM CST 5:51 PM CST
Astronomical Twilight 5:22 AM CST 6:27 PM CST
Moon 1:48 AM CST (11/9) 2:11 PM CST (11/9)
Length of Visible Light 10h 37m
Length of Day
9h 30m
Waning Crescent, 23% of the Moon is Illuminated
Nov 9
Waning Crescent
Nov 13
New
Nov 20
First Quarter
Nov 28
Full
Dec 6
Last Quarter

Hourly Weather History & Observations

Time (CST) Temp. Windchill Dew Point Humidity Pressure Visibility Wind Dir Wind Speed Gust Speed Precip Events Conditions
12:13 AM 33.8 °F - 26.6 °F 75% 30.09 in 10.0 mi Calm Calm - N/A   Overcast
12:33 AM 33.8 °F - 26.6 °F 75% 30.10 in 10.0 mi Calm Calm - N/A   Overcast
12:53 AM 33.8 °F 30.8 °F 26.6 °F 75% 30.10 in 10.0 mi NE 3.5 mph - N/A   Overcast
1:13 AM 33.8 °F - 26.6 °F 75% 30.09 in 10.0 mi Calm Calm - N/A   Overcast
1:33 AM 33.8 °F - 26.6 °F 75% 30.10 in 10.0 mi Calm Calm - N/A   Overcast
1:53 AM 33.8 °F - 28.4 °F 81% 30.11 in 10.0 mi Calm Calm - N/A   Overcast
2:13 AM 33.8 °F - 28.4 °F 81% 30.12 in 10.0 mi Calm Calm - N/A   Overcast
2:33 AM 33.8 °F - 28.4 °F 81% 30.12 in 10.0 mi Calm Calm - N/A   Overcast
2:53 AM 33.8 °F - 28.4 °F 81% 30.12 in 10.0 mi Calm Calm - N/A   Overcast
3:13 AM 32.0 °F - 26.6 °F 80% 30.12 in 10.0 mi Calm Calm - N/A   Overcast
3:33 AM 32.0 °F - 26.6 °F 80% 30.12 in 10.0 mi Calm Calm - N/A   Overcast
3:53 AM 32.0 °F - 26.6 °F 80% 30.13 in 10.0 mi Calm Calm - N/A   Overcast
4:13 AM 32.0 °F - 26.6 °F 80% 30.14 in 10.0 mi Calm Calm - N/A   Overcast
4:33 AM 30.2 °F - 26.6 °F 86% 30.13 in 10.0 mi Calm Calm - N/A   Overcast
4:53 AM 30.2 °F - 26.6 °F 86% 30.13 in 10.0 mi Calm Calm - N/A   Overcast
5:13 AM 30.2 °F - 26.6 °F 86% 30.14 in 10.0 mi Calm Calm - N/A   Overcast
5:53 AM 30.2 °F - 24.8 °F 80% 30.14 in 10.0 mi Calm Calm - N/A   Overcast
6:13 AM 30.2 °F - 24.8 °F 80% 30.14 in 10.0 mi Calm Calm - N/A   Overcast
6:33 AM 30.2 °F - 24.8 °F 80% 30.14 in 10.0 mi Calm Calm - N/A   Overcast
6:53 AM 30.2 °F - 24.8 °F 80% 30.13 in 10.0 mi Calm Calm - N/A   Overcast
7:33 AM 30.2 °F - 24.8 °F 80% 30.15 in 10.0 mi Calm Calm - N/A   Overcast
7:53 AM 30.2 °F 26.7 °F 24.8 °F 80% 30.14 in 10.0 mi NE 3.5 mph - N/A   Overcast
8:13 AM 30.2 °F - 24.8 °F 80% 30.15 in 10.0 mi Calm Calm - N/A   Overcast
8:33 AM 30.2 °F - 24.8 °F 80% 30.15 in 10.0 mi Calm Calm - N/A   Overcast
8:53 AM 30.2 °F - 24.8 °F 80% 30.15 in 10.0 mi Calm Calm - N/A   Overcast
9:13 AM 30.2 °F 26.7 °F 24.8 °F 80% 30.16 in 10.0 mi NNE 3.5 mph - N/A   Overcast
9:33 AM 30.2 °F - 24.8 °F 80% 30.16 in 10.0 mi Calm Calm - N/A   Overcast
9:53 AM 30.2 °F 26.7 °F 24.8 °F 80% 30.16 in 10.0 mi NE 3.5 mph - N/A   Overcast
10:13 AM 30.2 °F 26.7 °F 24.8 °F 80% 30.16 in 10.0 mi NNE 3.5 mph - N/A   Overcast
10:33 AM 32.0 °F - 24.8 °F 75% 30.16 in 10.0 mi Calm Calm - N/A   Overcast
10:53 AM 32.0 °F 26.4 °F 24.8 °F 75% 30.16 in 10.0 mi NE 5.8 mph - N/A   Overcast
11:13 AM 33.8 °F - 24.8 °F 70% 30.16 in 10.0 mi Calm Calm - N/A   Mostly Cloudy
11:33 AM 35.6 °F 32.8 °F 24.8 °F 65% 30.16 in 10.0 mi East 3.5 mph - N/A   Mostly Cloudy
11:53 AM 35.6 °F 30.7 °F 24.8 °F 65% 30.15 in 10.0 mi NE 5.8 mph - N/A   Mostly Cloudy
12:13 PM 33.8 °F 29.6 °F 21.2 °F 60% 30.15 in 10.0 mi ENE 4.6 mph - N/A   Scattered Clouds
12:33 PM 33.8 °F 27.7 °F 21.2 °F 60% 30.15 in 10.0 mi ENE 6.9 mph - N/A   Scattered Clouds
12:53 PM 35.6 °F 31.7 °F 21.2 °F 56% 30.14 in 10.0 mi ENE 4.6 mph - N/A   Scattered Clouds
1:13 PM 33.8 °F 30.8 °F 21.2 °F 60% 30.14 in 10.0 mi NE 3.5 mph - N/A   Clear
1:33 PM 33.8 °F 29.6 °F 21.2 °F 60% 30.13 in 10.0 mi East 4.6 mph - N/A   Clear
1:53 PM 33.8 °F - 21.2 °F 60% 30.12 in 10.0 mi Calm Calm - N/A   Clear
2:13 PM 33.8 °F 29.6 °F 21.2 °F 60% 30.12 in 10.0 mi NE 4.6 mph - N/A   Clear
2:33 PM 33.8 °F - 23.0 °F 65% 30.12 in 10.0 mi Calm Calm - N/A   Scattered Clouds
2:53 PM 33.8 °F 28.6 °F 21.2 °F 60% 30.12 in 10.0 mi NE 5.8 mph - N/A   Scattered Clouds
3:13 PM 33.8 °F 29.6 °F 21.2 °F 60% 30.12 in 10.0 mi ENE 4.6 mph - N/A   Scattered Clouds
3:33 PM 32.0 °F 28.7 °F 21.2 °F 64% 30.12 in 10.0 mi ENE 3.5 mph - N/A   Clear
3:53 PM 32.0 °F 27.5 °F 21.2 °F 64% 30.12 in 10.0 mi East 4.6 mph - N/A   Clear
4:13 PM 30.2 °F 25.4 °F 21.2 °F 69% 30.12 in 10.0 mi NE 4.6 mph - N/A   Clear
4:33 PM 30.2 °F 26.7 °F 21.2 °F 69% 30.12 in 10.0 mi NE 3.5 mph - N/A   Clear
4:53 PM 28.4 °F - 21.2 °F 74% 30.12 in 10.0 mi Calm Calm - N/A   Clear
5:13 PM 28.4 °F 24.6 °F 21.2 °F 74% 30.13 in 10.0 mi NE 3.5 mph - N/A   Clear
5:33 PM 28.4 °F - 21.2 °F 74% 30.13 in 10.0 mi Calm Calm - N/A   Clear
5:53 PM 28.4 °F - 21.2 °F 74% 30.13 in 10.0 mi Calm Calm - N/A   Clear
6:13 PM 28.4 °F - 21.2 °F 74% 30.13 in 10.0 mi Calm Calm - N/A   Scattered Clouds
6:33 PM 28.4 °F 24.6 °F 21.2 °F 74% 30.13 in 10.0 mi East 3.5 mph - N/A   Mostly Cloudy
6:53 PM 28.4 °F - 21.2 °F 74% 30.13 in 10.0 mi Calm Calm - N/A   Mostly Cloudy
7:13 PM 28.4 °F 24.6 °F 21.2 °F 74% 30.13 in 10.0 mi NNE 3.5 mph - N/A   Mostly Cloudy
7:33 PM 26.6 °F - 21.2 °F 80% 30.13 in 10.0 mi Calm Calm - N/A   Scattered Clouds
7:53 PM 26.6 °F 22.6 °F 21.2 °F 80% 30.13 in 10.0 mi East 3.5 mph - N/A   Clear
8:13 PM 26.6 °F - 21.2 °F 80% 30.12 in 10.0 mi Calm Calm - N/A   Clear
8:33 PM 26.6 °F 22.6 °F 21.2 °F 80% 30.11 in 10.0 mi ENE 3.5 mph - N/A   Scattered Clouds
8:53 PM 26.6 °F 22.6 °F 21.2 °F 80% 30.10 in 10.0 mi ENE 3.5 mph - N/A   Mostly Cloudy
9:13 PM 26.6 °F 22.6 °F 21.2 °F 80% 30.11 in 10.0 mi East 3.5 mph - N/A   Mostly Cloudy
9:33 PM 28.4 °F 24.6 °F 21.2 °F 74% 30.11 in 10.0 mi East 3.5 mph - N/A   Overcast
9:53 PM 28.4 °F 23.3 °F 21.2 °F 74% 30.10 in 10.0 mi East 4.6 mph - N/A   Overcast
10:13 PM 28.4 °F - 21.2 °F 74% 30.11 in 10.0 mi Calm Calm - N/A   Overcast
10:33 PM 28.4 °F - 21.2 °F 74% 30.10 in 10.0 mi Calm Calm - N/A   Overcast
10:53 PM 28.4 °F 23.3 °F 21.2 °F 74% 30.10 in 10.0 mi East 4.6 mph - N/A   Overcast
11:13 PM 28.4 °F 23.3 °F 21.2 °F 74% 30.09 in 10.0 mi East 4.6 mph - N/A   Overcast
11:33 PM 28.4 °F 21.2 °F 21.2 °F 74% 30.09 in 10.0 mi East 6.9 mph - N/A   Overcast
11:53 PM 28.4 °F - 21.2 °F 74% 30.09 in 10.0 mi Calm Calm - N/A   Overcast